User: anonymous   Login
Location: Caltech
(34.1382°N, 118.1253°W)
Time: 10:55:31
(UTC-08:00)
Language:

Sapphire - Orbit

View from above orbital plane
View from above orbital plane
View from above satellite
View from above satellite

Ground track
Ground track

The orbit data is extracted from the following two-line orbital elements,

1 26932U 01043D   18051.81124824 -.00000025  00000-0  22476-4 0  9998
2 26932  67.0563 172.3852 0004047 279.6376  80.4267 14.30272807855924
Epoch (UTC): 20 February 2018 19:28:11
Eccentricity: 0.0004047
inclination: 67.0563°
perigee height: 788 km
apogee height: 794 km
right ascension of ascending node: 172.3852°
argument of perigee: 279.6376°
revolutions per day: 14.30272807
mean anomaly at epoch: 80.4267°
orbit number at epoch: 85592

The dashed part of the orbit path shows where the satellite is in the earth's shadow,  

DLR